Probability
0 1 0 0 0 0 0 0 0 0 0 0 0 0 0 0 0 0 0 0 0 0 0 0 0 0 0 0 0 0 0 0 0 0 0 0 0 0 0 0 0 0 0
1 1 1 0 0 0 0 0 0 0 1 1 0 0 0 0 0 0 0 0 0 0 0 0 0 0 0 0 0 0 0 0 0 0 0 0 0 0 0 0 0 0 0
1 2 2 1 0 0 0 0 0 1 2 2 2 2 1 1 0 0 0 0 0 0 0 0 0 0 0 0 0 0 0 0 0 0 0 0 0 0 0 0 0 0 0
1 2 3 2 0 0 0 0 0 1 3 4 5 5 5 3 2 0 0 0 0 0 0 0 0 0 0 0 0 0 0 0 0 0 0 0 0 0 0 0 0 0 0
2 3 3 1 0 0 0 0 1 2 4 6 7 7 6 4 3 1 0 0 0 0 0 0 0 0 0 0 0 0 0 0 0 0 0 0 0 0 0 0 0 0 0
2 3 2 1 0 0 0 0 1 2 4 6 7 7 4 2 1 0 0 0 0 0 0 0 0 0 0 0 0 0 0 0 0 0 0 0 0 0 0 0 0 0 0
1 2 2 1 0 0 1 1 1 3 6 8 8 6 4 2 0 0 0 0 0 0 0 0 0 0 0 0 0 0 0 0 0 0 0 0 0 0 0 0 0 0 0
0 1 2 1 1 1 2 3 4 6 8 11 11 9 7 5 4 3 2 1 0 0 0 0 0 0 0 0 0 0 0 0 0 0 0 0 0 0 0 0 0 0 0
0 1 1 2 2 4 6 9 11 12 13 14 14 13 12 11 10 9 7 4 1 0 0 0 0 0 0 0 0 0 0 0 0 0 0 0 1 0 0 0 0 0 0
1 2 4 5 6 6 10 17 20 19 19 19 20 21 20 16 14 14 15 14 10 4 1 0 0 0 0 0 0 0 0 0 0 0 0 1 2 1 0 0 0 0 0
12 12 13 14 14 12 15 22 25 26 27 27 29 33 32 24 19 23 29 36 29 15 6 2 2 2 2 2 1 1 1 0 0 0 3 7 6 2 0 0 0 0 0
35 32 28 27 27 23 22 25 26 31 37 35 36 43 45 40 35 36 49 58 48 29 16 8 4 4 5 6 8 7 4 1 0 0 11 24 18 4 0 0 0 0 1
57 52 45 44 45 43 40 35 32 38 45 44 44 51 56 57 55 55 63 68 59 45 33 25 17 12 9 11 14 12 6 2 1 4 23 43 31 7 0 0 0 1 2
71 66 60 61 65 64 58 51 46 45 47 49 52 58 61 66 67 67 72 74 69 63 56 48 38 26 19 16 14 9 5 3 3 8 30 47 34 9 0 0 0 1 2
81 76 72 74 76 73 65 59 54 49 46 48 53 57 60 65 68 71 78 80 75 72 70 64 54 42 31 22 14 7 6 5 4 8 24 37 30 11 2 1 0 1 2
83 82 78 75 74 69 62 57 52 47 42 42 46 49 52 58 64 70 76 78 76 73 73 68 58 47 37 25 16 11 11 9 6 6 14 23 20 10 4 3 3 2 2
82 83 78 70 66 64 58 53 47 41 35 34 36 39 42 47 54 61 66 70 72 71 70 65 55 44 35 23 17 15 15 12 8 6 8 12 11 6 3 4 5 4 3
81 81 76 68 64 60 55 50 43 34 29 26 27 30 33 36 42 47 52 57 61 63 60 53 44 34 27 21 17 15 15 12 8 5 4 6 6 4 4 5 6 6 5
72 73 72 68 62 54 47 43 36 29 24 21 21 24 27 27 29 33 38 43 47 50 48 39 31 24 20 16 12 10 10 8 5 2 1 2 3 3 5 6 6 6 5
54 57 60 60 55 46 38 34 29 24 21 19 17 17 19 19 18 21 28 33 34 38 36 28 21 17 14 11 6 4 4 3 1 0 0 0 1 1 3 4 4 3 3
38 40 42 42 40 35 31 27 24 21 20 17 14 11 11 10 10 14 21 25 25 26 26 20 16 14 11 8 4 2 1 1 0 0 0 0 0 0 0 1 1 1 2
24 26 26 25 24 24 22 18 16 16 14 11 10 8 7 6 6 8 12 15 17 19 19 17 14 12 8 6 4 2 1 0 0 0 0 0 0 0 0 0 0 0 1
12 15 15 14 14 15 13 10 9 9 6 5 5 6 5 4 4 5 6 7 10 13 16 16 13 10 9 6 4 2 0 0 0 0 0 0 0 0 0 0 0 0 0
5 6 8 9 11 11 10 9 9 7 5 3 3 3 4 4 4 4 3 3 5 7 11 12 10 11 11 7 4 2 1 1 0 0 0 0 0 0 0 0 0 0 0
2 2 4 7 10 11 11 12 11 9 7 4 2 2 2 2 3 2 1 1 2 4 6 9 11 13 13 9 6 4 3 2 1 1 0 0 0 0 0 0 0 0 0
1 1 3 7 11 12 13 13 12 10 7 4 1 0 1 1 1 1 0 0 1 3 5 8 13 15 13 10 8 6 5 3 2 2 1 0 0 0 0 0 0 0 0
Wind_Speed
14 19 21 16 15 13 13 13 13 14 14 14 14 14 14 13 13 12 11 10 9 8 8 7 7 7 7 8 9 9 10 10 10 11 11 10 10 10 10 10 8 11 12
17 20 21 17 15 14 13 13 12 13 13 14 14 14 13 13 12 12 11 10 9 8 7 6 6 7 7 7 8 9 9 9 9 10 10 10 10 9 9 6 3 11 11
18 20 20 16 16 14 13 13 13 13 13 13 13 13 13 12 12 11 10 9 9 8 7 6 6 6 7 7 7 8 8 9 9 9 9 9 10 9 8 7 9 12 10
18 19 18 18 16 15 14 13 13 13 13 13 13 12 12 12 11 11 10 9 8 8 7 6 6 6 7 7 7 7 7 7 8 9 7 6 9 11 8 8 9 10 10
17 16 17 19 17 15 14 13 13 12 12 12 12 12 11 11 11 10 10 9 8 8 7 7 6 6 6 6 7 7 7 7 7 10 5 5 6 11 8 8 9 9 9
17 16 19 18 16 15 14 13 13 12 12 12 11 11 11 10 10 10 9 9 8 7 7 7 6 6 7 7 7 7 7 7 9 8 6 5 7 10 9 8 9 9 9
16 15 19 17 16 15 14 14 13 12 12 12 11 11 10 10 9 9 9 8 8 7 7 7 7 7 7 7 8 8 8 8 10 6 6 6 6 9 8 9 9 9 9
16 15 17 17 16 15 14 14 13 13 12 12 11 11 10 10 9 9 9 8 8 8 8 7 7 7 8 8 8 9 9 10 11 8 7 6 9 8 8 9 10 10 10
14 14 15 16 15 15 13 13 13 12 11 11 11 10 10 9 9 9 9 9 9 9 8 8 9 9 9 9 10 10 10 11 13 8 9 7 11 10 10 11 12 13 12
13 13 13 13 13 13 13 13 12 12 11 10 10 10 10 10 10 10 10 11 10 10 10 10 11 11 11 11 12 12 12 11 14 12 8 7 13 11 12 12 13 14 15
12 11 12 12 11 11 11 12 13 12 11 11 11 12 11 11 12 12 14 11 12 12 12 12 13 13 12 14 15 14 13 10 13 11 8 8 13 12 13 13 13 15 16
13 12 11 11 10 10 7 8 8 9 9 10 8 9 10 9 8 9 7 9 12 13 14 14 14 13 13 11 14 16 10 14 12 9 8 11 12 13 14 14 14 14 16
13 13 12 11 10 8 5 5 4 4 4 7 8 8 8 8 7 8 7 9 11 14 12 12 14 12 11 9 7 9 11 11 8 8 8 15 14 15 16 16 15 15 15
13 13 11 10 8 6 4 4 3 4 3 4 5 8 8 6 8 7 6 7 7 7 8 8 7 10 10 11 11 11 11 9 8 7 5 13 15 16 17 17 17 16 16
11 11 10 8 7 5 4 3 3 3 4 5 5 7 9 8 9 8 7 7 8 7 7 8 9 9 10 11 11 12 13 12 11 10 6 11 14 15 17 18 18 18 17
9 9 8 8 7 4 3 3 3 4 4 6 6 8 9 9 8 8 8 8 8 8 7 7 9 8 9 8 11 11 11 11 11 11 10 9 14 15 16 17 17 18 18
7 6 6 6 6 4 4 5 4 5 6 6 6 8 9 10 9 9 8 8 7 7 8 7 9 8 8 9 10 11 9 10 10 10 10 8 9 14 16 16 16 16 17
2 3 2 3 3 3 4 4 5 6 6 6 6 7 9 10 10 9 7 6 6 6 6 6 7 7 7 7 7 7 7 7 9 10 10 9 8 8 12 16 14 14 15
3 2 2 1 2 3 4 5 6 5 6 6 6 7 7 8 9 8 6 5 5 5 5 7 6 6 6 7 7 6 7 7 8 9 9 10 9 8 8 10 14 13 14
3 2 1 1 1 3 3 4 4 5 5 5 5 5 6 5 5 5 5 4 4 4 5 6 5 5 5 5 7 6 6 7 7 8 9 9 8 10 10 8 8 11 15
3 2 1 1 1 2 3 4 4 4 4 4 4 4 5 5 4 4 4 2 3 5 6 6 5 6 6 5 5 6 7 9 7 6 7 7 8 8 7 6 7 6 7
3 2 0 1 2 3 3 4 4 4 4 4 4 3 4 4 5 4 4 3 4 4 5 5 5 5 5 5 5 6 6 6 6 6 5 6 6 6 6 7 5 5 6
2 1 1 2 3 4 5 4 3 4 4 3 3 3 3 4 4 4 5 4 5 5 5 6 6 7 6 5 6 6 5 4 3 5 5 5 5 4 5 4 6 6 7
1 1 1 3 4 4 5 5 6 5 5 4 3 3 4 4 4 4 4 4 5 6 6 6 7 6 7 7 6 6 7 5 4 3 7 7 6 6 5 4 5 5 6
2 3 3 4 4 5 6 6 7 7 6 5 4 3 4 3 3 3 3 4 4 5 6 6 6 7 7 9 7 6 7 6 7 6 4 5 6 6 5 5 4 4 3
5 5 5 6 6 6 7 8 8 9 9 8 7 5 5 3 3 3 3 3 3 4 5 6 7 9 9 9 8 7 7 7 7 7 6 6 5 4 4 3 3 3 2
Wind_Direction
157 144 146 156 158 158 155 152 153 156 159 160 159 157 155 154 154 154 153 150 147 144 139 130 120 114 111 111 112 113 115 117 121 122 122 121 120 120 120 127 147 115 113
149 142 148 156 159 159 156 153 151 153 156 157 158 158 157 155 156 156 156 155 154 152 146 138 129 123 117 116 117 120 124 126 128 130 133 130 125 123 125 134 79 108 126
147 143 152 156 159 160 159 155 153 154 155 156 157 158 158 158 158 158 159 160 161 161 154 147 140 134 129 126 125 128 132 136 139 145 173 153 130 130 130 124 106 124 131
148 148 155 153 160 162 161 159 158 158 158 158 159 160 160 160 162 163 165 167 168 168 160 156 152 146 139 137 138 140 145 150 155 176 192 139 137 132 141 138 136 140 141
148 149 146 156 162 164 163 162 162 162 162 162 163 164 165 166 168 170 173 175 177 176 171 168 166 159 154 153 154 156 160 164 169 215 153 144 129 136 155 154 153 153 151
150 154 147 161 163 165 166 166 166 166 166 168 168 169 171 172 175 178 181 183 183 182 181 179 178 173 169 169 171 172 175 177 199 200 158 177 142 146 167 169 169 166 165
155 154 149 162 164 167 168 170 171 170 171 173 174 175 178 180 184 188 189 191 192 194 195 195 193 190 186 186 187 188 190 197 233 193 178 189 134 141 177 181 184 181 179
157 156 147 161 166 169 171 174 175 176 177 179 181 182 185 189 193 198 200 202 206 208 210 210 208 205 204 202 201 202 204 219 227 217 208 199 133 156 193 197 197 196 194
160 155 154 164 168 172 175 178 180 181 184 186 190 192 196 200 204 209 213 215 218 220 222 221 221 220 216 213 212 212 214 224 253 228 214 208 151 180 208 214 210 205 203
163 162 160 168 168 175 178 181 185 187 190 195 200 204 207 211 215 218 222 215 224 229 229 230 230 229 226 221 219 217 218 221 238 241 222 192 156 190 212 219 218 211 206
168 166 168 170 172 184 186 173 186 191 196 202 205 208 216 223 218 208 221 210 220 231 235 236 236 235 234 228 226 223 220 231 230 241 231 168 165 197 216 222 222 216 210
172 174 174 179 174 189 191 174 197 203 195 214 221 213 219 230 240 239 197 206 227 235 239 239 241 240 238 235 218 215 226 229 241 232 222 164 179 207 220 224 225 222 215
174 180 180 181 179 191 191 195 206 220 211 223 230 233 240 244 236 236 228 206 219 228 234 228 229 236 235 238 240 221 229 235 233 237 216 170 192 213 223 225 226 225 221
178 183 184 178 179 188 204 208 217 233 236 249 235 241 241 240 246 245 239 240 231 228 233 242 237 239 243 244 241 240 236 237 242 241 224 177 197 214 224 226 225 226 225
178 182 184 182 179 184 198 234 239 259 267 263 268 252 252 249 246 244 243 243 245 242 234 237 245 248 247 247 243 238 238 236 240 242 233 196 205 217 226 228 227 226 226
183 184 183 190 187 196 216 241 258 260 263 275 268 265 260 258 255 250 244 239 243 245 246 244 247 248 249 249 250 248 243 241 237 238 242 219 208 216 224 228 228 227 226
183 182 191 199 196 208 237 252 263 268 267 268 271 270 265 262 260 254 251 242 243 245 243 241 247 248 247 245 244 244 243 243 242 238 242 246 230 213 216 223 229 229 227
136 155 191 223 221 235 254 270 272 276 280 277 279 275 268 268 263 257 251 245 242 240 238 237 241 243 244 248 251 250 245 240 241 241 240 236 241 240 213 212 221 225 227
81 116 156 216 256 271 278 273 272 275 279 279 276 274 274 270 269 262 253 250 245 241 242 248 235 240 249 252 254 244 247 245 242 241 243 244 238 238 242 197 203 218 225
87 99 121 162 252 280 276 271 272 273 275 278 282 283 278 271 272 272 254 245 249 240 239 244 252 238 258 257 262 264 254 250 241 238 239 238 239 237 237 232 213 212 215
97 95 76 340 306 283 285 291 292 293 294 293 292 293 293 290 287 278 280 252 236 241 245 247 243 232 235 236 249 249 238 233 236 239 237 241 229 230 239 233 238 242 209
98 99 177 272 294 288 289 285 286 294 293 299 306 303 300 303 298 283 278 265 250 249 245 248 244 255 245 218 242 255 244 210 208 221 216 220 228 216 221 220 231 238 259
87 56 4 334 312 302 298 285 280 266 267 279 296 299 304 304 301 298 288 278 266 257 249 240 240 238 246 233 232 251 259 250 180 180 205 210 210 225 233 228 234 239 247
20 346 329 305 302 300 292 298 304 306 310 315 306 317 313 310 312 314 306 287 273 265 259 248 237 241 242 242 219 235 263 311 275 193 187 188 201 219 242 256 256 246 245
305 304 300 299 296 293 293 293 290 297 303 302 302 303 303 310 305 310 311 305 292 282 275 265 259 245 238 243 239 221 218 218 240 261 215 188 196 207 212 233 254 260 259
292 291 292 294 292 290 289 292 290 295 295 296 291 290 282 285 289 297 296 294 286 284 282 273 262 247 246 246 249 243 226 219 220 226 228 219 216 208 207 235 239 230 237